1489604400.96,57723,10.31,73354.3,-9.53,-10.23,-10.35,0,*5C
1489604402.19,57724,10.31,73402.5,-9.53,-10.35,-10.49,0,*57
1489604403.42,57725,10.31,73388.0,-9.53,-10.31,-10.49,0,*52
1489604404.69,57726,10.31,73384.3,-9.53,-10.31,-10.41,0,*59
1489604405.95,57727,10.31,73402.0,-9.53,-10.31,-10.41,0,*58
1489604407.19,57728,10.31,73386.0,-9.53,-10.35,-10.49,0,*5B
1489604408.42,57729,10.31,73372.3,-9.53,-10.35,-10.53,0,*51
1489604409.68,57730,10.31,73366.3,-9.53,-10.31,-10.41,0,*5E
1489604410.93,57731,10.31,73358.3,-9.53,-10.35,-10.35,0,*58
1489604412.17,57732,10.31,73348.3,-9.53,-10.35,-10.31,0,*5F
1489604413.4,57733,10.31,73346.8,-9.53,-10.23,-10.35,0,*5D
1489604414.67,57734,10.31,73316.0,-9.53,-10.35,-10.41,0,*5E
1489604415.94,57735,10.31,73316.0,-9.53,-10.35,-10.41,0,*5F
1489604417.18,57736,10.31,73318.3,-9.53,-10.35,-10.35,0,*5F
1489604418.44,57737,10.31,73316.0,-9.53,-10.31,-10.41,0,*59
1489604419.65,57738,10.31,73324.8,-9.51,-10.35,-10.49,0,*58
1489604420.88,57739,10.31,73320.8,-9.53,-10.35,-10.49,0,*5B
1489604422.14,57740,10.31,73332.5,-9.53,-10.31,-10.41,0,*59
1489604423.38,57741,10.31,73344.3,-9.55,-10.41,-10.45,0,*5D
1489604424.64,57742,10.31,73342.0,-9.53,-10.31,-10.41,0,*5B
1489604425.9,57743,10.31,73362.8,-9.53,-10.31,-10.41,0,*5A
1489604427.17,57744,10.31,73358.5,-9.53,-10.35,-10.41,0,*59
1489604428.43,57745,10.31,73362.8,-9.53,-10.41,-10.49,0,*53
1489604429.69,57746,10.31,73370.8,-9.53,-10.41,-10.49,0,*50
1489604430.97,57747,10.31,73344.5,-9.53,-10.41,-10.41,0,*59
1489604432.23,57748,10.31,73336.8,-9.53,-10.41,-10.49,0,*5E
1489604433.43,57749,10.31,73354.5,-9.55,-10.53,-10.57,0,*55
1489604434.66,57750,10.31,73356.5,-9.55,-10.53,-10.67,0,*5E
1489604435.9,57751,10.31,73338.8,-9.55,-10.57,-10.67,0,*5B
1489604437.16,57752,10.31,73338.8,-9.57,-10.57,-10.67,0,*5A
1489604438.36,57753,10.31,73346.8,-9.55,-10.45,-10.57,0,*59
1489604439.57,57754,10.31,73352.0,-9.55,-10.45,-10.53,0,*5A
1489604440.8,57755,10.31,73354.5,-9.55,-10.53,-10.67,0,*5B
1489604442.02,57756,10.31,73382.3,-9.57,-10.57,-10.85,0,*52
1489604443.24,57757,10.31,73376.5,-9.57,-10.85,-10.85,0,*5C
1489604444.5,57758,10.31,73356.5,-9.57,-10.71,-10.93,0,*5F
1489604445.75,57759,10.31,73346.8,-9.57,-10.79,-10.85,0,*51
1489604447.03,57760,10.31,73346.5,-9.57,-10.71,-10.71,0,*58
1489604448.28,57761,10.31,73364.0,-9.57,-10.71,-10.85,0,*52
1489604449.52,57762,10.31,73366.8,-9.57,-10.79,-10.85,0,*59
1489604450.77,57763,10.31,73358.0,-9.57,-10.71,-10.85,0,*50
1489604452.03,57764,10.31,73376.8,-9.57,-10.57,-10.67,0,*5F
1489604453.26,57765,10.31,73384.5,-9.57,-10.45,-10.57,0,*5E
1489604454.49,57766,10.31,73368.0,-9.57,-10.53,-10.57,0,*5A
1489604455.71,57767,10.31,73356.8,-9.57,-10.53,-10.57,0,*5B
1489604456.94,57768,10.31,73376.8,-9.57,-10.45,-10.53,0,*57
1489604458.16,57769,10.31,73384.0,-9.57,-10.45,-10.45,0,*51
1489604459.39,57770,10.31,73392.8,-9.57,-10.45,-10.45,0,*59
1489604460.62,57771,10.31,73376.5,-9.57,-10.45,-10.57,0,*5B
1489604461.85,57772,10.31,73366.0,-9.59,-10.49,-10.63,0,*5D
1489604463.08,57773,10.31,73358.0,-9.59,-10.49,-10.63,0,*5C
1489604464.28,57774,10.31,73362.5,-9.59,-10.49,-10.57,0,*5C
1489604465.51,57775,10.31,73370.5,-9.59,-10.49,-10.71,0,*59
1489604466.74,57776,10.31,73350.0,-9.59,-10.49,-10.71,0,*5A
1489604467.94,57777,10.31,73366.8,-9.59,-10.49,-10.49,0,*50
1489604469.15,57778,10.31,73374.5,-9.59,-10.45,-10.45,0,*5F
1489604470.35,57779,10.31,73374.5,-9.59,-10.45,-10.45,0,*5E
1489604471.55,57780,10.31,73382.5,-9.59,-10.45,-10.49,0,*54
1489604472.76,57781,10.31,73378.0,-9.59,-10.45,-10.57,0,*5A
1489604473.96,57782,10.31,73384.3,-9.59,-10.49,-10.57,0,*55
1489604475.19,57783,10.31,73382.3,-9.57,-10.49,-10.49,0,*55
1489604476.39,57784,10.31,73372.0,-9.59,-10.45,-10.53,0,*5B
1489604477.62,57785,10.31,73368.5,-9.59,-10.57,-10.63,0,*5A
1489604478.86,57786,10.31,73286.8,-9.59,-10.57,-10.63,0,*59
1489604480.06,57787,10.31,73306.5,-9.59,-10.49,-10.57,0,*50
1489604481.29,57788,10.31,73332.0,-9.59,-10.57,-10.63,0,*57
1489604482.52,57789,10.31,73340.5,-9.59,-10.49,-10.63,0,*59
1489604483.73,57790,10.31,73270.5,-9.59,-10.49,-10.49,0,*59
1489604484.96,57791,10.31,73270.5,-9.59,-10.57,-10.71,0,*5C
1489604486.24,57792,10.31,73302.5,-9.61,-10.71,-10.71,0,*50
1489604487.5,57793,10.31,73306.8,-9.59,-10.63,-10.75,0,*5D
1489604488.73,57794,10.31,73298.5,-9.59,-10.71,-10.85,0,*56
1489604489.93,57795,10.31,73290.0,-9.59,-10.85,-10.89,0,*50
1489604491.16,57796,10.31,73288.8,-9.61,-10.85,-10.89,0,*58
1489604492.42,57797,10.31,73272.5,-9.61,-10.57,-10.63,0,*52
1489604493.62,57798,10.31,73242.3,-9.59,-10.57,-10.57,0,*51
1489604494.86,57799,10.31,73286.3,-9.61,-10.57,-10.49,0,*54
1489604496.06,57800,10.31,73308.0,-9.59,-10.49,-10.49,0,*5F
1489604497.29,57801,10.31,73318.3,-9.61,-10.49,-10.49,0,*55
1489604498.53,57802,10.31,73342.0,-9.59,-10.41,-10.45,0,*59
1489604499.82,57803,10.31,73340.8,-9.61,-10.41,-10.41,0,*57
1489604501.05,57804,10.31,73350.0,-9.61,-10.27,-10.31,0,*57
1489604502.26,57805,10.31,73356.8,-9.59,-10.31,-10.45,0,*59
1489604503.49,57806,10.31,73368.0,-9.59,-10.27,-10.41,0,*59
1489604504.75,57807,10.31,73382.0,-9.61,-10.27,-10.41,0,*53
1489604505.99,57808,10.31,73388.5,-9.61,-10.27,-10.31,0,*5B
1489604507.2,57809,10.31,73382.8,-9.59,-10.27,-10.31,0,*51
1489604508.43,57810,10.31,73374.5,-9.59,-10.31,-10.41,0,*59
1489604509.67,57811,10.31,73376.3,-9.59,-10.31,-10.41,0,*58
1489604510.9,57812,10.31,73376.5,-9.59,-10.27,-10.41,0,*5C
1489604512.14,57813,10.31,73398.5,-9.59,-10.27,-10.41,0,*5D
1489604513.35,57814,10.31,73364.5,-9.59,-10.27,-10.31,0,*5D
1489604514.61,57815,10.31,73350.0,-9.61,-10.31,-10.41,0,*57
1489604515.87,57816,10.31,73344.5,-9.61,-10.27,-10.41,0,*53
1489604517.11,57817,10.31,73328.8,-9.57,-10.23,-10.35,0,*50
1489604518.34,57818,10.31,73322.8,-9.57,-10.27,-10.35,0,*5B
1489604519.58,57819,10.31,73350.3,-9.59,-10.31,-10.41,0,*50
1489604520.81,57820,10.31,73352.3,-9.61,-10.27,-10.45,0,*52
1489604522.04,57821,10.31,73354.0,-9.59,-10.31,-10.41,0,*5B
1489604523.28,57822,10.31,73344.3,-9.59,-10.31,-10.41,0,*58
1489604524.49,57823,10.31,73348.5,-9.59,-10.31,-10.27,0,*59
1489604525.73,57824,10.31,73342.5,-9.59,-10.31,-10.41,0,*5E
1489604526.96,57825,10.31,73356.8,-9.61,-10.31,-10.27,0,*54
1489604528.2,57826,10.31,73348.8,-9.59,-10.31,-10.41,0,*5C
1489604529.43,57827,10.31,73362.5,-9.59,-10.31,-10.41,0,*5D
1489604530.67,57828,10.31,73364.8,-9.57,-10.23,-10.27,0,*5F
1489604531.9,57829,10.31,73352.8,-9.57,-10.15,-10.23,0,*5F
1489604533.13,57830,10.31,73356.5,-9.57,-10.23,-10.27,0,*56
1489604534.35,57831,10.31,73368.0,-9.55,-10.15,-10.27,0,*50
1489604535.58,57832,10.31,73334.5,-9.57,-10.23,-10.27,0,*54
1489604536.82,57833,10.31,73330.0,-9.57,-10.23,-10.27,0,*55
1489604538.03,57834,10.31,73336.8,-9.55,-10.27,-10.27,0,*54
1489604539.26,57835,10.31,73346.0,-9.57,-10.23,-10.27,0,*53
1489604540.5,57836,10.31,73358.5,-9.57,-10.15,-10.27,0,*55
1489604541.73,57837,10.31,73370.3,-9.57,-10.15,-10.27,0,*54
1489604542.94,57838,10.31,73358.5,-9.55,-10.15,-10.23,0,*5D
1489604544.16,57839,10.31,73370.8,-9.57,-10.09,-10.23,0,*53
1489604545.37,57840,10.31,73366.3,-9.55,-10.23,-10.23,0,*57
1489604546.58,57841,10.31,73360.3,-9.55,-10.15,-10.15,0,*56
1489604547.79,57842,10.31,73402.5,-9.55,-10.15,-10.23,0,*50
1489604548.99,57843,10.31,73380.8,-9.55,-10.09,-10.27,0,*58
1489604550.2,57844,10.31,73380.3,-9.55,-10.15,-10.27,0,*52
1489604551.43,57845,10.31,73370.5,-9.57,-10.09,-10.23,0,*58
1489604552.62,57846,10.31,73386.5,-9.55,-10.09,-10.23,0,*59
1489604553.85,57847,10.31,73404.0,-9.57,-10.15,-10.23,0,*57
1489604555.06,57848,10.31,73364.3,-9.55,-10.15,-10.23,0,*5A
1489604556.26,57849,10.31,73350.8,-9.55,-10.09,-10.23,0,*56
1489604557.47,57850,10.31,73362.5,-9.55,-10.27,-10.27,0,*56
1489604558.68,57851,10.31,73360.0,-9.55,-10.23,-10.35,0,*50
1489604559.89,57852,10.31,73352.8,-9.55,-10.27,-10.35,0,*57
1489604561.1,57853,10.31,73338.0,-9.55,-10.23,-10.27,0,*51
1489604562.31,57854,10.31,73332.3,-9.55,-10.27,-10.27,0,*52
1489604563.54,57855,10.31,73344.5,-9.55,-10.23,-10.41,0,*57
1489604564.78,57856,10.31,73350.3,-9.53,-10.23,-10.35,0,*51
1489604566.02,57857,10.31,73344.8,-9.55,-10.27,-10.41,0,*51
1489604567.26,57858,10.31,73352.5,-9.55,-10.35,-10.41,0,*5D
1489604568.47,57859,10.31,73348.8,-9.55,-10.27,-10.35,0,*5C
1489604569.7,57860,10.31,73338.8,-9.55,-10.27,-10.41,0,*55
1489604570.94,57861,10.31,73350.5,-9.55,-10.27,-10.41,0,*54
1489604572.18,57862,10.31,73374.3,-9.53,-10.23,-10.35,0,*56
1489604573.41,57863,10.31,73410.0,-9.55,-10.27,-10.41,0,*56
1489604574.65,57864,10.25,73396.0,-9.55,-10.35,-10.41,0,*52
1489604575.91,57865,10.31,73366.5,-9.55,-10.67,-10.79,0,*5F
1489604577.11,57866,10.31,73350.3,-9.55,-10.53,-10.57,0,*57
1489604578.32,57867,10.31,73340.0,-9.55,-10.45,-10.45,0,*52
1489604579.58,57868,10.31,73376.3,-9.57,-10.35,-10.41,0,*5C
1489604580.82,57869,10.31,73386.5,-9.55,-10.35,-10.41,0,*5F
1489604582.08,57870,10.31,73390.8,-9.57,-10.27,-10.41,0,*56
1489604583.29,57871,10.31,73360.5,-9.55,-10.35,-10.35,0,*55
1489604584.53,57872,10.31,73360.5,-9.55,-10.27,-10.41,0,*56
1489604585.74,57873,10.31,73384.0,-9.55,-10.23,-10.35,0,*50
1489604586.95,57874,10.31,73398.3,-9.55,-10.27,-10.35,0,*53
1489604588.16,57875,10.31,73410.3,-9.55,-10.27,-10.27,0,*51
1489604589.37,57876,10.31,73438.0,-9.55,-10.23,-10.35,0,*55
1489604590.61,57877,10.31,73428.3,-9.55,-10.27,-10.41,0,*53
1489604591.82,57878,10.31,73424.0,-9.55,-10.27,-10.35,0,*5F
1489604593.05,57879,10.31,73422.5,-9.55,-10.27,-10.41,0,*5D
1489604594.29,57880,10.31,73386.8,-9.55,-10.27,-10.41,0,*5B
1489604595.53,57881,10.31,73410.0,-9.55,-10.35,-10.41,0,*59
1489604596.76,57882,10.31,73386.5,-9.55,-10.45,-10.67,0,*59
1489604597.99,57883,10.31,73386.5,-9.55,-10.79,-10.93,0,*5C
1489604599.22,57884,10.31,73368.5,-9.55,-11.07,-11.19,0,*50
1489604600.45,57885,10.31,73386.3,-9.57,-10.97,-11.11,0,*53
1489604601.66,57886,10.31,73398.5,-9.55,-10.85,-10.97,0,*5E
1489604602.89,57887,10.31,73404.3,-9.57,-10.93,-10.93,0,*5E
1489604604.12,57888,10.31,73360.3,-9.57,-10.85,-10.97,0,*52
1489604605.35,57889,10.31,73404.3,-9.55,-10.71,-10.85,0,*59
1489604606.57,57890,10.31,73360.0,-9.59,-10.71,-10.85,0,*5D
1489604607.78,57891,10.31,73378.5,-9.59,-10.89,-10.97,0,*58
1489604608.98,57892,10.31,73376.5,-9.59,-10.89,-10.89,0,*54
1489604610.21,57893,10.31,73368.0,-9.59,-10.75,-10.85,0,*5A
1489604611.49,57894,10.31,73344.3,-9.61,-10.63,-10.71,0,*5A
1489604612.74,57895,10.25,73344.3,-9.61,-10.71,-10.85,0,*53
1489604614.03,57896,10.31,73342.5,-9.61,-10.63,-10.75,0,*5C
1489604615.29,57897,10.31,73356.0,-9.59,-10.71,-10.75,0,*55
1489604616.53,57898,10.31,73352.5,-9.61,-10.89,-10.97,0,*5A
1489604617.76,57899,10.31,73350.5,-9.61,-11.01,-11.15,0,*51
1489604618.98,57900,10.25,73332.0,-9.59,-10.97,-10.97,0,*5E
1489604620.2,57901,10.31,73332.5,-9.61,-10.85,-10.89,0,*58
1489604621.43,57902,10.31,73336.8,-9.61,-10.85,-10.89,0,*5B
1489604622.69,57903,10.31,73322.8,-9.61,-10.75,-10.89,0,*55
1489604623.98,57904,10.31,73328.8,-9.61,-10.63,-10.71,0,*52
1489604625.24,57905,10.31,73310.3,-9.63,-10.67,-10.79,0,*5D
1489604626.46,57906,10.31,73328.0,-9.63,-10.79,-10.93,0,*55
1489604627.69,57907,10.31,73330.0,-9.63,-10.79,-11.01,0,*5E
1489604628.95,57908,10.31,73292.8,-9.61,-10.75,-10.89,0,*5E
1489604630.2,57909,10.31,73294.5,-9.63,-10.75,-10.79,0,*52
1489604631.46,57910,10.31,73308.5,-9.63,-10.67,-10.79,0,*59
1489604632.69,57911,10.31,73290.3,-9.63,-10.75,-10.89,0,*54
1489604633.95,57912,10.31,73294.8,-9.63,-10.67,-10.75,0,*57
1489604635.21,57913,10.31,73270.3,-9.63,-10.63,-10.79,0,*5E
1489604636.46,57914,10.31,73264.8,-9.65,-10.53,-10.67,0,*53
1489604637.71,57915,10.31,73274.0,-9.65,-10.53,-10.63,0,*56
1489604638.97,57916,10.31,73274.8,-9.65,-10.53,-10.63,0,*55
1489604640.22,57917,10.31,73286.3,-9.65,-10.53,-10.67,0,*50
1489604641.47,57918,10.31,73308.0,-9.65,-10.53,-10.75,0,*5C
1489604642.73,57919,10.31,73306.5,-9.65,-10.89,-11.07,0,*5E
1489604643.98,57920,10.31,73318.3,-9.65,-10.79,-10.93,0,*57
1489604645.21,57921,10.25,73346.8,-9.63,-10.67,-10.89,0,*54
1489604646.47,57922,10.31,73362.3,-9.63,-10.67,-10.75,0,*54
1489604647.74,57923,10.25,73376.5,-9.63,-10.63,-10.67,0,*52
1489604649.02,57924,10.31,73392.5,-9.65,-10.63,-10.75,0,*50
1489604650.25,57925,10.31,73392.8,-9.63,-10.53,-10.67,0,*57
1489604651.53,57926,10.31,73348.8,-9.65,-10.63,-10.79,0,*5E
1489604652.79,57927,10.31,73352.0,-9.65,-10.89,-11.07,0,*53
1489604654.04,57928,10.31,73330.5,-9.65,-11.01,-11.29,0,*51
1489604655.27,57929,10.31,73360.8,-9.65,-10.93,-11.15,0,*55
1489604656.5,57930,10.31,73344.8,-9.65,-11.15,-11.45,0,*57
1489604657.78,57931,10.25,73370.0,-9.65,-11.29,-11.73,0,*5C
1489604659.04,57932,10.25,73382.3,-9.67,-11.33,-11.93,0,*58
1489604660.27,57933,10.31,73402.8,-9.67,-11.55,-12.21,0,*53
1489604661.52,57934,10.31,73406.3,-9.71,-11.51,-11.77,0,*57
1489604662.75,57935,10.31,73426.8,-9.71,-11.45,-11.67,0,*52
1489604664.0,57936,10.31,73420.3,-9.71,-11.37,-11.51,0,*51
1489604665.23,57937,10.31,73420.8,-9.71,-11.37,-11.45,0,*55
1489604666.48,57938,10.31,73404.5,-9.73,-11.41,-11.51,0,*5C
1489604667.76,57939,10.31,73384.8,-9.73,-11.29,-11.29,0,*5C
1489604668.99,57940,10.25,73374.8,-9.73,-11.11,-11.11,0,*52
1489604670.23,57941,10.31,73374.3,-9.73,-11.01,-11.01,0,*53
1489604671.43,57942,10.31,73378.0,-9.75,-10.85,-10.89,0,*5A
1489604672.68,57943,10.31,73372.5,-9.73,-10.75,-10.85,0,*5E
1489604673.93,57944,10.31,73372.3,-9.73,-10.75,-10.85,0,*59
1489604675.13,57945,10.31,73368.3,-9.75,-10.85,-10.89,0,*5D
1489604676.36,57946,10.31,73356.5,-9.75,-10.75,-10.89,0,*51
1489604677.57,57947,10.31,73354.0,-9.75,-10.89,-10.97,0,*5C
1489604678.82,57948,10.31,73344.8,-9.73,-10.71,-10.89,0,*5D
1489604680.07,57949,10.31,73306.5,-9.73,-10.75,-10.85,0,*54
1489604681.36,57950,10.31,73294.3,-9.73,-10.63,-10.75,0,*54
1489604682.61,57951,10.31,73324.3,-9.75,-10.63,-10.71,0,*57
1489604683.9,57952,10.31,73330.3,-9.73,-10.63,-10.63,0,*51
1489604685.16,57953,10.31,73334.5,-9.75,-10.63,-10.71,0,*55
1489604686.44,57954,10.31,73332.0,-9.73,-10.63,-10.63,0,*57
1489604687.68,57955,10.31,73334.8,-9.75,-10.57,-10.63,0,*57
1489604688.93,57956,10.31,73346.3,-9.73,-10.53,-10.63,0,*56
1489604690.18,57957,10.31,73364.5,-9.73,-10.57,-10.63,0,*53
1489604691.41,57958,10.31,73362.3,-9.73,-10.57,-10.57,0,*5B
1489604692.62,57959,10.31,73364.0,-9.75,-10.57,-10.57,0,*5C
1489604693.85,57960,10.31,73374.0,-9.73,-10.57,-10.57,0,*50
1489604695.11,57961,10.31,73394.8,-9.73,-10.57,-10.63,0,*56
1489604696.36,57962,10.31,73386.5,-9.73,-10.53,-10.63,0,*51
1489604697.61,57963,10.31,73360.0,-9.73,-10.53,-10.63,0,*50
1489604698.84,57964,10.31,73360.8,-9.73,-10.57,-10.57,0,*54
1489604700.07,57965,10.31,73360.3,-9.73,-10.53,-10.57,0,*51
1489604701.27,57966,10.31,73376.8,-9.67,-10.49,-10.53,0,*58
1489604702.46,57967,10.31,73398.3,-9.71,-10.53,-10.53,0,*55
1489604703.69,57968,10.31,73366.3,-9.71,-10.41,-10.53,0,*59
1489604704.92,57969,10.31,73358.3,-9.71,-10.41,-10.53,0,*58
1489604706.12,57970,10.31,73366.0,-9.71,-10.49,-10.49,0,*53
1489604707.35,57971,10.31,73378.8,-9.73,-10.53,-10.53,0,*50
1489604708.58,57972,10.31,73374.8,-9.73,-10.57,-10.57,0,*53
1489604709.8,57973,10.31,73336.8,-9.73,-10.53,-10.57,0,*56
1489604711.0,57974,10.31,73338.8,-9.67,-10.49,-10.53,0,*5B
1489604712.2,57975,10.31,73318.5,-9.71,-10.53,-10.53,0,*56
1489604713.4,57976,10.31,73338.8,-9.71,-10.49,-10.53,0,*5E
1489604714.6,57977,10.31,73332.5,-9.71,-10.53,-10.53,0,*54
1489604715.8,57978,10.31,73340.0,-9.71,-10.49,-10.53,0,*50
1489604717.0,57979,10.25,73356.0,-9.71,-10.49,-10.53,0,*51
1489604718.2,57980,10.31,73352.8,-9.71,-10.49,-10.53,0,*57
1489604719.43,57981,10.25,73352.3,-9.71,-10.41,-10.49,0,*55
1489604720.66,57982,10.31,73366.0,-9.71,-10.41,-10.49,0,*56
1489604721.89,57983,10.31,73376.0,-9.71,-10.41,-10.49,0,*57
1489604723.12,57984,10.31,73374.8,-9.71,-10.41,-10.49,0,*50
1489604724.35,57985,10.31,73374.0,-9.67,-10.41,-10.53,0,*5D
1489604725.56,57986,10.31,73386.3,-9.67,-10.35,-10.49,0,*56
1489604726.79,57987,10.31,73384.8,-9.67,-10.35,-10.41,0,*5F
1489604728.03,57988,10.31,73374.8,-9.71,-10.35,-10.41,0,*57
1489604729.27,57989,10.31,73368.0,-9.71,-10.35,-10.41,0,*56
1489604730.5,57990,10.31,73372.0,-9.67,-10.35,-10.41,0,*59
1489604731.74,57991,10.31,73370.8,-9.67,-10.35,-10.41,0,*58
1489604732.97,57992,10.25,73386.0,-9.67,-10.41,-10.35,0,*5B
1489604734.21,57993,10.31,73394.3,-9.67,-10.35,-10.41,0,*5A
1489604735.44,57994,10.31,73402.3,-9.67,-10.35,-10.41,0,*5D
1489604736.67,57995,10.25,73398.8,-9.67,-10.41,-10.53,0,*5C
1489604737.93,57996,10.31,73402.0,-9.71,-10.41,-10.67,0,*5F
1489604739.16,57997,10.31,73402.8,-9.71,-10.41,-10.57,0,*5D
1489604740.39,57998,10.31,73412.5,-9.71,-10.41,-10.49,0,*5D
1489604741.62,57999,10.31,73406.0,-9.67,-10.41,-10.49,0,*5B
1489604742.85,58000,10.25,73390.8,-9.67,-10.41,-10.53,0,*56
1489604744.08,58001,10.31,73426.8,-9.67,-10.41,-10.49,0,*5C
1489604745.31,58002,10.25,73402.3,-9.67,-10.41,-10.49,0,*5F
1489604746.54,58003,10.31,73404.5,-9.65,-10.45,-10.45,0,*54
1489604747.74,58004,10.25,73402.8,-9.67,-10.49,-10.49,0,*51
1489604748.97,58005,10.25,73398.3,-9.67,-10.41,-10.53,0,*53
1489604750.2,58006,10.31,73384.8,-9.67,-10.41,-10.49,0,*5B
1489604751.4,58007,10.25,73416.3,-9.67,-10.49,-10.49,0,*52
1489604752.6,58008,10.31,73418.3,-9.67,-10.49,-10.49,0,*5D
1489604753.83,58009,10.31,73414.5,-9.65,-10.45,-10.49,0,*52
1489604755.05,58010,10.31,73398.3,-9.67,-10.41,-10.53,0,*57
1489604756.28,58011,10.25,73396.5,-9.67,-10.41,-10.53,0,*56
1489604757.48,58012,10.25,73408.8,-9.67,-10.49,-10.53,0,*5D
1489604758.71,58013,10.25,73418.3,-9.67,-10.41,-10.57,0,*50
1489604759.91,58014,10.25,73418.0,-9.67,-10.53,-10.57,0,*54
1489604761.14,58015,10.25,73400.3,-9.67,-10.57,-10.67,0,*52
1489604762.37,58016,10.25,73388.3,-9.71,-10.67,-10.85,0,*59
1489604763.6,58017,10.25,73374.5,-9.65,-10.89,-11.01,0,*50
1489604764.83,58018,10.25,73356.3,-9.67,-10.85,-11.07,0,*57
1489604766.05,58019,10.25,73328.3,-9.71,-10.79,-10.85,0,*59
1489604767.3,58020,10.25,73308.0,-9.71,-10.71,-10.71,0,*50
1489604768.53,58021,10.25,73312.8,-9.71,-10.57,-10.71,0,*55
1489604769.76,58022,10.25,73330.5,-9.71,-10.57,-10.71,0,*56
1489604771.02,58023,10.25,73348.5,-9.71,-10.67,-10.79,0,*5C
1489604772.27,58024,10.25,73358.5,-9.71,-10.67,-10.71,0,*53
1489604773.51,58025,10.25,73362.5,-9.67,-10.57,-10.67,0,*51
1489604774.71,58026,10.31,73362.5,-9.71,-10.57,-10.57,0,*56
1489604775.91,58027,10.25,73370.3,-9.71,-10.53,-10.57,0,*53
1489604777.11,58028,10.31,73362.5,-9.67,-10.53,-10.57,0,*5B
1489604778.31,58029,10.25,73356.8,-9.67,-10.49,-10.57,0,*51
1489604779.51,58030,10.25,73382.0,-9.67,-10.49,-10.53,0,*5D
1489604780.74,58031,10.25,73358.0,-9.71,-10.57,-10.67,0,*53
1489604781.97,58032,10.25,73370.3,-9.71,-10.57,-10.67,0,*50
1489604783.18,58033,10.25,73370.3,-9.71,-10.57,-10.57,0,*52
1489604784.38,58034,10.25,73388.0,-9.71,-10.49,-10.57,0,*5A
1489604785.61,58035,10.25,73364.0,-9.67,-10.41,-10.49,0,*5B
1489604786.84,58036,10.25,73368.5,-9.71,-10.41,-10.49,0,*5F
1489604788.05,58037,10.31,73364.5,-9.71,-10.35,-10.53,0,*56
1489604789.27,58038,10.25,73378.3,-9.71,-10.41,-10.53,0,*5A
1489604790.5,58039,10.25,73370.0,-9.67,-10.41,-10.49,0,*57
1489604791.73,58040,10.25,73372.3,-9.67,-10.41,-10.53,0,*52
1489604792.94,58041,10.25,73396.0,-9.67,-10.35,-10.49,0,*5B
1489604794.14,58042,10.25,73382.3,-9.67,-10.49,-10.53,0,*58
1489604795.34,58043,10.25,73400.5,-9.71,-10.49,-10.53,0,*5E
1489604796.57,58044,10.25,73412.3,-9.67,-10.41,-10.49,0,*5D
1489604797.8,58045,10.25,73408.3,-9.71,-10.41,-10.49,0,*5B
1489604799.06,58046,10.31,73432.0,-9.67,-10.41,-10.41,0,*57
1489604800.29,58047,10.25,73414.5,-9.67,-10.41,-10.53,0,*55
1489604801.52,58048,10.25,73426.0,-9.67,-10.41,-10.53,0,*5A
1489604802.71,58049,10.25,73356.8,-9.67,-10.53,-10.57,0,*5C
1489604803.93,58050,10.25,73296.0,-9.71,-10.79,-10.85,0,*54
1489604805.19,58051,10.25,73358.8,-9.71,-10.67,-10.79,0,*59
1489604806.42,58052,10.25,73374.8,-9.67,-10.57,-10.71,0,*56
1489604807.64,58053,10.25,73444.0,-9.71,-10.53,-10.79,0,*5C
1489604808.87,58054,10.25,73406.3,-9.71,-10.53,-10.71,0,*53
1489604810.06,58055,10.25,73366.3,-9.67,-10.53,-10.57,0,*51
1489604811.26,58056,10.25,73376.3,-9.67,-10.49,-10.57,0,*59
1489604812.46,58057,10.25,73390.0,-9.71,-10.53,-10.57,0,*54
1489604813.66,58058,10.25,73390.0,-9.67,-10.53,-10.57,0,*5C
1489604814.86,58059,10.25,73398.5,-9.71,-10.49,-10.57,0,*51
1489604816.06,58060,10.25,73396.8,-9.67,-10.53,-10.57,0,*57
1489604817.28,58061,10.25,73412.8,-9.71,-10.53,-10.67,0,*52
1489604818.51,58062,10.25,73410.5,-9.71,-10.57,-10.79,0,*5A
1489604819.74,58063,10.25,73410.0,-9.71,-10.57,-10.79,0,*5B
1489604820.94,58064,10.25,73380.8,-9.67,-10.57,-10.85,0,*58
1489604822.14,58065,10.25,73370.8,-9.71,-10.57,-10.57,0,*51
1489604823.38,58066,10.25,73412.8,-9.71,-10.57,-10.67,0,*51
1489604824.61,58067,10.25,73384.0,-9.71,-10.57,-10.67,0,*50
1489604825.81,58068,10.25,73412.8,-9.67,-10.57,-10.57,0,*5B
1489604827.04,58069,10.25,73408.8,-9.67,-10.53,-10.67,0,*5D
1489604828.24,58070,10.25,73404.0,-9.71,-10.49,-10.53,0,*5E
1489604829.44,58071,10.25,73400.5,-9.67,-10.53,-10.53,0,*53
1489604830.64,58072,10.25,73414.5,-9.71,-10.49,-10.53,0,*5C
1489604831.84,58073,10.25,73414.0,-9.67,-10.49,-10.53,0,*5A
1489604833.07,58074,10.31,73412.8,-9.67,-10.41,-10.53,0,*55
1489604834.3,58075,10.31,73414.3,-9.67,-10.41,-10.53,0,*54
1489604835.52,58076,10.25,73396.8,-9.71,-10.41,-10.53,0,*50
1489604836.72,58077,10.25,73384.0,-9.71,-10.53,-10.57,0,*56
1489604837.92,58078,10.25,73364.8,-9.71,-10.53,-10.57,0,*59
1489604839.12,58079,10.25,73372.0,-9.71,-10.49,-10.57,0,*53
1489604840.35,58080,10.25,73342.5,-9.71,-10.57,-10.67,0,*59
1489604841.61,58081,10.25,73344.5,-9.71,-10.71,-10.71,0,*5B
1489604842.87,58082,10.25,73356.8,-9.71,-10.67,-10.67,0,*58
1489604844.07,58083,10.25,73348.3,-9.71,-10.53,-10.57,0,*5D
1489604845.27,58084,10.25,73330.0,-9.71,-10.53,-10.57,0,*5A
1489604846.49,58085,10.25,73322.0,-9.71,-10.71,-10.85,0,*54
1489604847.75,58086,10.25,73326.0,-9.71,-10.67,-10.79,0,*53
1489604848.98,58087,10.25,73338.0,-9.71,-10.57,-10.71,0,*59
1489604850.21,58088,10.25,73330.0,-9.67,-10.71,-10.93,0,*59
1489604851.44,58089,10.25,73314.3,-9.71,-10.71,-10.93,0,*5F
1489604852.67,58090,10.25,73322.0,-9.71,-10.71,-10.85,0,*50
1489604853.95,58091,10.25,73342.3,-9.73,-10.75,-10.75,0,*58
1489604855.17,58092,10.31,73304.3,-9.73,-10.85,-10.85,0,*5B
1489604856.45,58093,10.25,73318.8,-9.73,-10.63,-10.75,0,*5D
1489604857.74,58094,10.31,73324.8,-9.73,-10.71,-10.75,0,*59
1489604858.99,58095,10.25,73320.3,-9.73,-10.71,-10.85,0,*57
1489604860.27,58096,10.31,73318.5,-9.73,-10.63,-10.75,0,*58
1489604861.56,58097,10.31,73350.0,-9.73,-10.71,-10.75,0,*5A
1489604862.84,58098,10.25,73332.8,-9.73,-10.71,-10.75,0,*55
1489604864.1,58099,10.31,73346.0,-9.71,-10.71,-10.79,0,*5A
1489604865.36,58100,10.25,73348.3,-9.75,-10.63,-10.71,0,*54
1489604866.61,58101,10.31,73354.5,-9.73,-10.57,-10.63,0,*57
1489604867.87,58102,10.25,73348.0,-9.73,-10.57,-10.63,0,*54
1489604869.1,58103,10.25,73350.8,-9.75,-10.57,-10.63,0,*53
1489604870.34,58104,10.25,73336.0,-9.73,-10.57,-10.57,0,*55
1489604871.56,58105,10.31,73342.3,-9.73,-10.53,-10.57,0,*50
1489604872.79,58106,10.25,73356.5,-9.73,-10.45,-10.49,0,*5B
1489604874.01,58107,10.25,73364.5,-9.73,-10.53,-10.57,0,*52
1489604875.24,58108,10.25,73348.3,-9.73,-10.53,-10.53,0,*59
1489604876.46,58109,10.31,73374.0,-9.73,-10.53,-10.57,0,*5C
1489604877.69,58110,10.31,73362.0,-9.73,-10.45,-10.57,0,*53
1489604878.92,58111,10.31,73360.5,-9.73,-10.57,-10.57,0,*51
1489604880.12,58112,10.25,73332.5,-9.71,-10.49,-10.53,0,*5B
1489604881.38,58113,10.25,73316.5,-9.73,-10.41,-10.57,0,*54
1489604882.64,58114,10.25,73316.0,-9.73,-10.41,-10.57,0,*53
1489604883.87,58115,10.25,73322.8,-9.71,-10.41,-10.49,0,*5F
1489604885.1,58116,10.25,73312.5,-9.71,-10.41,-10.49,0,*5C
1489604886.33,58117,10.25,73344.3,-9.71,-10.41,-10.49,0,*5D
1489604887.56,58118,10.25,73334.5,-9.71,-10.41,-10.49,0,*52
1489604888.76,58119,10.31,73344.5,-9.71,-10.35,-10.49,0,*50
1489604889.99,58120,10.25,73348.0,-9.71,-10.41,-10.49,0,*59
1489604891.2,58121,10.25,73324.0,-9.71,-10.35,-10.49,0,*5B
1489604892.46,58122,10.25,73320.8,-9.73,-10.41,-10.53,0,*52